Live Position
Loading 3D Globe...
About Flock 4g-3
Group: 3 satellites
Description loading...
Upcoming Passes
Passes for default location (London). Set your location on the main map for personalized predictions.
Altitude History
Loading altitude history...
No altitude history available
Two-Line Element Set
1 62639U 25009AG 26107.12020783 .00006664 00000-0 24579-3 0 9993
2 62639 97.4033 189.4642 0004127 139.9038 220.2507 15.28112663 69575
Epoch: Apr 17, 2026 •
Age: 13 hours
Current Status
Altitude 481.5 km
Velocity 7.63 km/s
Sub-Earth Point 8.40°N,
77.77°W
Launch Date Jan 14, 2025
Age 1.2 years
Type earth observation
Technical Details
Classification Payload
Mass 5.70 kg
Dry Mass 5.70 kg
Total Mass 5.70 kg
Length 0.30 m
Diameter 0.10 m
Span 0.30 m
Shape Box+2 pan
Manufacturer PLAN
Bus Type Cubesat 3U
Phase Status In Orbit
Owner/State PLAN/US
Most Searched
Loading...